This is the latest recevied weather packets stored in our database for station/object KB7KFC-3. If no packets are shown the sender has not sent any weather packets the latest 10 day(s).
| Time | Temp. | Humidity | Pressure | Rain* | Wind** | Luminosity | Snow |
|---|---|---|---|---|---|---|---|
| 1777440027 | 22.22° C | 27% | 1015.2 hPa | 0 mm | - | - | - |
| 1777439847 | 22.22° C | 25% | 1015.1 hPa | 0 mm | - | - | - |
| 1777439668 | 22.22° C | 24% | 1015.1 hPa | 0 mm | - | - | - |
| 1777439487 | 22.22° C | 24% | 1015.1 hPa | 0 mm | - | - | - |
| 1777439307 | 22.22° C | 24% | 1015.2 hPa | 0 mm | - | - | - |
| 1777439128 | 22.78° C | 27% | 1015.3 hPa | 0 mm | - | - | - |
| 1777438948 | 22.78° C | 27% | 1015.2 hPa | 0 mm | - | - | - |
| 1777438768 | 22.78° C | 24% | 1015.1 hPa | 0 mm | - | - | - |
| 1777438587 | 22.78° C | 23% | 1015.1 hPa | 0 mm | - | - | - |
| 1777438407 | 23.33° C | 23% | 1015.1 hPa | 0 mm | - | - | - |
| 1777438228 | 23.33° C | 23% | 1015.1 hPa | 0 mm | - | - | - |
| 1777438048 | 23.33° C | 20% | 1015.1 hPa | 0 mm | - | - | - |
| 1777437867 | 23.33° C | 20% | 1015.2 hPa | 0 mm | - | - | - |
| 1777437507 | 23.33° C | 20% | 1015.2 hPa | 0 mm | - | - | - |
| 1777437327 | 23.33° C | 20% | 1015.2 hPa | 0 mm | - | - | - |
| 1777437148 | 23.33° C | 20% | 1015.2 hPa | 0 mm | - | - | - |
| 1777436967 | 23.33° C | 20% | 1015.1 hPa | 0 mm | - | - | - |
| 1777436787 | 23.33° C | 21% | 1015.1 hPa | 0 mm | - | - | - |
| 1777436608 | 23.89° C | 20% | 1015 hPa | 0 mm | - | - | - |
| 1777436247 | 23.89° C | 19% | 1015 hPa | 0 mm | - | - | - |
| 1777436067 | 23.89° C | 19% | 1015 hPa | 0 mm | - | - | - |
| 1777435887 | 23.89° C | 20% | 1015 hPa | 0 mm | - | - | - |
| 1777435708 | 23.89° C | 19% | 1015 hPa | 0 mm | - | - | - |
| 1777435347 | 23.89° C | 19% | 1014.8 hPa | 0 mm | - | - | - |
| 1777435168 | 23.89° C | 19% | 1014.9 hPa | 0 mm | - | - | - |
* Rain latest hour (hover to see other rain measurements)
** Current wind speed in m/s (hover to see current wind gust speed)